contact:dominique.lefevre@mio.osupytheas.fr, maurice.libes@osupytheas.fr, didier.mallarino@osupytheas.fr
Project:EMSO http://www.emso-fr.org/EMSO-France
Depth: 2436.0 m
Title:EMSO Ligure Ouest : Data MII capteur MICROCAT
DateTime_Computer,Latitude,Longitude,Temperature,Conductivity,Pressure,DateTime_Instrument
DateTime_Computer,Latitude,Longitude,degC,S m-1,dbar,DateTime_Instrument
2023-02-23T00:01:44Z,42.805,6.029,13.3017,4.60074,2470.483,2023-2-23T02:04:12Z
2023-02-23T00:04:47Z,42.805,6.029,13.3019,4.60073,2470.46,2023-2-23T02:07:15Z
2023-02-23T00:07:50Z,42.805,6.029,13.3014,4.60076,2470.437,2023-2-23T02:10:18Z
2023-02-23T00:10:53Z,42.805,6.029,13.3015,4.60074,2470.46,2023-2-23T02:13:22Z
2023-02-23T00:13:56Z,42.805,6.029,13.3018,4.60074,2470.497,2023-2-23T02:16:25Z
2023-02-23T00:17:00Z,42.805,6.029,13.3018,4.60075,2470.46,2023-2-23T02:19:28Z
2023-02-23T00:20:03Z,42.805,6.029,13.3016,4.60074,2470.437,2023-2-23T02:22:31Z
2023-02-23T00:23:06Z,42.805,6.029,13.3016,4.60074,2470.474,2023-2-23T02:25:34Z
2023-02-23T00:26:09Z,42.805,6.029,13.3019,4.60074,2470.483,2023-2-23T02:28:37Z
2023-02-23T00:29:12Z,42.805,6.029,13.3018,4.60073,2470.45,2023-2-23T02:31:40Z
2023-02-23T00:32:15Z,42.805,6.029,13.3018,4.60075,2470.45,2023-2-23T02:34:43Z
2023-02-23T00:35:18Z,42.805,6.029,13.3018,4.60074,2470.46,2023-2-23T02:37:46Z
2023-02-23T00:38:21Z,42.805,6.029,13.3019,4.60074,2470.474,2023-2-23T02:40:49Z
2023-02-23T00:41:24Z,42.805,6.029,13.3015,4.60074,2470.437,2023-2-23T02:43:52Z
2023-02-23T00:44:27Z,42.805,6.029,13.3015,4.60074,2470.446,2023-2-23T02:46:55Z
2023-02-23T00:47:30Z,42.805,6.029,13.3015,4.60073,2470.437,2023-2-23T02:49:58Z
2023-02-23T00:50:33Z,42.805,6.029,13.3017,4.60074,2470.413,2023-2-23T02:53:02Z
2023-02-23T00:53:36Z,42.805,6.029,13.3015,4.60074,2470.437,2023-2-23T02:56:05Z
2023-02-23T00:56:40Z,42.805,6.029,13.3013,4.60072,2470.45,2023-2-23T02:59:08Z
2023-02-23T00:59:43Z,42.805,6.029,13.3016,4.60072,2470.437,2023-2-23T03:02:11Z
2023-02-23T01:02:46Z,42.805,6.029,13.3015,4.60073,2470.437,2023-2-23T03:05:14Z
2023-02-23T01:05:49Z,42.805,6.029,13.3020,4.60073,2470.437,2023-2-23T03:08:17Z
2023-02-23T01:08:52Z,42.805,6.029,13.3014,4.60073,2470.413,2023-2-23T03:11:20Z
2023-02-23T01:11:55Z,42.805,6.029,13.3015,4.60073,2470.45,2023-2-23T03:14:23Z
2023-02-23T01:14:58Z,42.805,6.029,13.3016,4.60072,2470.413,2023-2-23T03:17:26Z
2023-02-23T01:18:01Z,42.805,6.029,13.3015,4.60074,2470.427,2023-2-23T03:20:29Z
2023-02-23T01:21:04Z,42.805,6.029,13.3018,4.60073,2470.437,2023-2-23T03:23:32Z
2023-02-23T01:24:07Z,42.805,6.029,13.3019,4.60072,2470.399,2023-2-23T03:26:35Z
2023-02-23T01:27:10Z,42.805,6.029,13.3014,4.60075,2470.427,2023-2-23T03:29:39Z
2023-02-23T01:30:13Z,42.805,6.029,13.3016,4.60073,2470.39,2023-2-23T03:32:42Z
2023-02-23T01:33:16Z,42.805,6.029,13.3017,4.60072,2470.413,2023-2-23T03:35:45Z
2023-02-23T01:36:20Z,42.805,6.029,13.3015,4.60069,2470.39,2023-2-23T03:38:48Z
2023-02-23T01:39:23Z,42.805,6.029,13.3014,4.60069,2470.404,2023-2-23T03:41:51Z
2023-02-23T01:42:26Z,42.805,6.029,13.3014,4.60067,2470.413,2023-2-23T03:44:54Z
2023-02-23T01:45:29Z,42.805,6.029,13.3014,4.60068,2470.39,2023-2-23T03:47:57Z
2023-02-23T01:48:32Z,42.805,6.029,13.3019,4.60066,2470.413,2023-2-23T03:51:00Z
2023-02-23T01:51:35Z,42.805,6.029,13.3016,4.60067,2470.427,2023-2-23T03:54:03Z
2023-02-23T01:54:38Z,42.805,6.029,13.3016,4.60064,2470.39,2023-2-23T03:57:06Z
2023-02-23T01:57:41Z,42.805,6.029,13.3014,4.60064,2470.39,2023-2-23T04:00:09Z
2023-02-23T02:00:44Z,42.805,6.029,13.3018,4.60065,2470.413,2023-2-23T04:03:12Z
2023-02-23T02:03:47Z,42.805,6.029,13.3019,4.60066,2470.39,2023-2-23T04:06:15Z
2023-02-23T02:06:50Z,42.805,6.029,13.3017,4.60072,2470.39,2023-2-23T04:09:19Z
2023-02-23T02:09:53Z,42.805,6.029,13.3027,4.60074,2470.39,2023-2-23T04:12:22Z
2023-02-23T02:12:56Z,42.805,6.029,13.3020,4.60064,2470.413,2023-2-23T04:15:25Z
2023-02-23T02:16:00Z,42.805,6.029,13.3019,4.60067,2470.39,2023-2-23T04:18:28Z
2023-02-23T02:19:03Z,42.805,6.029,13.3028,4.60080,2470.404,2023-2-23T04:21:31Z
2023-02-23T02:22:06Z,42.805,6.029,13.3029,4.60074,2470.366,2023-2-23T04:24:34Z
2023-02-23T02:25:09Z,42.805,6.029,13.3030,4.60084,2470.366,2023-2-23T04:27:37Z
2023-02-23T02:28:12Z,42.805,6.029,13.3024,4.60067,2470.39,2023-2-23T04:30:40Z
2023-02-23T02:31:15Z,42.805,6.029,13.3029,4.60095,2470.38,2023-2-23T04:33:43Z
2023-02-23T02:34:18Z,42.805,6.029,13.3025,4.60082,2470.404,2023-2-23T04:36:46Z
2023-02-23T02:37:21Z,42.805,6.029,13.3036,4.60082,2470.39,2023-2-23T04:39:49Z
2023-02-23T02:40:24Z,42.805,6.029,13.3024,4.60084,2470.366,2023-2-23T04:42:52Z
2023-02-23T02:43:27Z,42.805,6.029,13.3026,4.60072,2470.404,2023-2-23T04:45:56Z
2023-02-23T02:46:30Z,42.805,6.029,13.3018,4.60079,2470.38,2023-2-23T04:48:59Z
2023-02-23T02:49:33Z,42.805,6.029,13.3029,4.60084,2470.366,2023-2-23T04:52:02Z
2023-02-23T02:52:37Z,42.805,6.029,13.3024,4.60083,2470.366,2023-2-23T04:55:05Z
2023-02-23T02:55:40Z,42.805,6.029,13.3035,4.60077,2470.404,2023-2-23T04:58:08Z
2023-02-23T02:58:43Z,42.805,6.029,13.3022,4.60074,2470.38,2023-2-23T05:01:11Z
2023-02-23T03:01:46Z,42.805,6.029,13.3025,4.60069,2470.366,2023-2-23T05:04:14Z
2023-02-23T03:04:49Z,42.805,6.029,13.3025,4.60073,2470.353,2023-2-23T05:07:17Z
2023-02-23T03:07:52Z,42.805,6.029,13.3034,4.60080,2470.366,2023-2-23T05:10:20Z
2023-02-23T03:10:55Z,42.805,6.029,13.3022,4.60077,2470.366,2023-2-23T05:13:23Z
2023-02-23T03:13:58Z,42.805,6.029,13.3028,4.60079,2470.366,2023-2-23T05:16:26Z
2023-02-23T03:17:01Z,42.805,6.029,13.3021,4.60066,2470.38,2023-2-23T05:19:29Z
2023-02-23T03:20:04Z,42.805,6.029,13.3032,4.60079,2470.366,2023-2-23T05:22:32Z
2023-02-23T03:23:07Z,42.805,6.029,13.3015,4.60068,2470.38,2023-2-23T05:25:36Z
2023-02-23T03:26:10Z,42.805,6.029,13.3019,4.60069,2470.366,2023-2-23T05:28:39Z
2023-02-23T03:29:14Z,42.805,6.029,13.3025,4.60076,2470.366,2023-2-23T05:31:42Z
2023-02-23T03:32:17Z,42.805,6.029,13.3031,4.60081,2470.38,2023-2-23T05:34:45Z
2023-02-23T03:35:20Z,42.805,6.029,13.3028,4.60104,2470.343,2023-2-23T05:37:48Z
2023-02-23T03:38:23Z,42.805,6.029,13.3027,4.60074,2470.366,2023-2-23T05:40:51Z
2023-02-23T03:41:26Z,42.805,6.029,13.3033,4.60084,2470.366,2023-2-23T05:43:54Z
2023-02-23T03:44:29Z,42.805,6.029,13.3034,4.60112,2470.38,2023-2-23T05:46:57Z
2023-02-23T03:47:32Z,42.805,6.029,13.3038,4.60087,2470.366,2023-2-23T05:50:00Z
2023-02-23T03:50:35Z,42.805,6.029,13.3026,4.60093,2470.38,2023-2-23T05:53:03Z
2023-02-23T03:53:38Z,42.805,6.029,13.3038,4.60082,2470.343,2023-2-23T05:56:06Z
2023-02-23T03:56:41Z,42.805,6.029,13.3036,4.60114,2470.366,2023-2-23T05:59:09Z
2023-02-23T03:59:44Z,42.805,6.029,13.3036,4.60106,2470.343,2023-2-23T06:02:13Z
2023-02-23T04:02:47Z,42.805,6.029,13.3028,4.60091,2470.413,2023-2-23T06:05:16Z
2023-02-23T04:05:50Z,42.805,6.029,13.3034,4.60089,2470.38,2023-2-23T06:08:19Z
2023-02-23T04:08:53Z,42.805,6.029,13.3034,4.60092,2470.39,2023-2-23T06:11:22Z
2023-02-23T04:11:57Z,42.805,6.029,13.3043,4.60108,2470.366,2023-2-23T06:14:25Z
2023-02-23T04:15:00Z,42.805,6.029,13.3027,4.60100,2470.343,2023-2-23T06:17:28Z
2023-02-23T04:18:03Z,42.805,6.029,13.3039,4.60095,2470.357,2023-2-23T06:20:31Z
2023-02-23T04:21:06Z,42.805,6.029,13.3043,4.60121,2470.38,2023-2-23T06:23:34Z
2023-02-23T04:24:09Z,42.805,6.029,13.3031,4.60125,2470.38,2023-2-23T06:26:37Z
2023-02-23T04:27:12Z,42.805,6.029,13.3033,4.60109,2470.413,2023-2-23T06:29:40Z
2023-02-23T04:30:15Z,42.805,6.029,13.3028,4.60085,2470.38,2023-2-23T06:32:43Z
2023-02-23T04:33:18Z,42.805,6.029,13.3045,4.60102,2470.38,2023-2-23T06:35:46Z
2023-02-23T04:36:21Z,42.805,6.029,13.3034,4.60097,2470.404,2023-2-23T06:38:49Z
2023-02-23T04:39:24Z,42.805,6.029,13.3035,4.60092,2470.366,2023-2-23T06:41:53Z
2023-02-23T04:42:27Z,42.805,6.029,13.3029,4.60106,2470.366,2023-2-23T06:44:56Z
2023-02-23T04:45:30Z,42.805,6.029,13.3042,4.60090,2470.39,2023-2-23T06:47:59Z
2023-02-23T04:48:34Z,42.805,6.029,13.3033,4.60090,2470.39,2023-2-23T06:51:02Z
2023-02-23T04:51:37Z,42.805,6.029,13.3039,4.60087,2470.404,2023-2-23T06:54:05Z
2023-02-23T04:54:40Z,42.805,6.029,13.3032,4.60099,2470.366,2023-2-23T06:57:08Z
2023-02-23T04:57:43Z,42.805,6.029,13.3026,4.60108,2470.39,2023-2-23T07:00:11Z
2023-02-23T05:00:46Z,42.805,6.029,13.3029,4.60097,2470.404,2023-2-23T07:03:14Z
2023-02-23T05:03:49Z,42.805,6.029,13.3031,4.60099,2470.39,2023-2-23T07:06:17Z
2023-02-23T05:06:52Z,42.805,6.029,13.3024,4.60092,2470.427,2023-2-23T07:09:20Z
2023-02-23T05:09:55Z,42.805,6.029,13.3026,4.60109,2470.39,2023-2-23T07:12:23Z
2023-02-23T05:12:58Z,42.805,6.029,13.3036,4.60111,2470.413,2023-2-23T07:15:26Z
2023-02-23T05:16:01Z,42.805,6.029,13.3030,4.60104,2470.427,2023-2-23T07:18:30Z
2023-02-23T05:19:04Z,42.805,6.029,13.3036,4.60108,2470.427,2023-2-23T07:21:33Z
2023-02-23T05:22:07Z,42.805,6.029,13.3034,4.60098,2470.413,2023-2-23T07:24:36Z
2023-02-23T05:25:10Z,42.805,6.029,13.3031,4.60112,2470.427,2023-2-23T07:27:39Z
2023-02-23T05:28:14Z,42.805,6.029,13.3035,4.60117,2470.437,2023-2-23T07:30:42Z
2023-02-23T05:31:17Z,42.805,6.029,13.3026,4.60107,2470.437,2023-2-23T07:33:45Z
2023-02-23T05:34:20Z,42.805,6.029,13.3034,4.60118,2470.45,2023-2-23T07:36:48Z
2023-02-23T05:37:23Z,42.805,6.029,13.3038,4.60120,2470.437,2023-2-23T07:39:51Z
2023-02-23T05:40:26Z,42.805,6.029,13.3037,4.60120,2470.413,2023-2-23T07:42:54Z
2023-02-23T05:43:29Z,42.805,6.029,13.3029,4.60118,2470.46,2023-2-23T07:45:57Z
2023-02-23T05:46:32Z,42.805,6.029,13.3032,4.60127,2470.427,2023-2-23T07:49:00Z
2023-02-23T05:49:35Z,42.805,6.029,13.3029,4.60107,2470.46,2023-2-23T07:52:03Z
2023-02-23T05:52:38Z,42.805,6.029,13.3029,4.60093,2470.437,2023-2-23T07:55:07Z
2023-02-23T05:55:41Z,42.805,6.029,13.3034,4.60125,2470.46,2023-2-23T07:58:10Z
2023-02-23T05:58:44Z,42.805,6.029,13.3034,4.60115,2470.46,2023-2-23T08:01:13Z
2023-02-23T06:01:47Z,42.805,6.029,13.3036,4.60125,2470.474,2023-2-23T08:04:16Z
2023-02-23T06:04:50Z,42.805,6.029,13.3041,4.60140,2470.474,2023-2-23T08:07:19Z
2023-02-23T06:07:54Z,42.805,6.029,13.3034,4.60140,2470.483,2023-2-23T08:10:22Z
2023-02-23T06:10:57Z,42.805,6.029,13.3045,4.60144,2470.483,2023-2-23T08:13:25Z
2023-02-23T06:14:00Z,42.805,6.029,13.3034,4.60135,2470.483,2023-2-23T08:16:28Z
2023-02-23T06:17:03Z,42.805,6.029,13.3047,4.60146,2470.46,2023-2-23T08:19:31Z
2023-02-23T06:20:06Z,42.805,6.029,13.3044,4.60142,2470.507,2023-2-23T08:22:34Z
2023-02-23T06:23:09Z,42.805,6.029,13.3041,4.60139,2470.52,2023-2-23T08:25:37Z
2023-02-23T06:26:12Z,42.805,6.029,13.3044,4.60128,2470.507,2023-2-23T08:28:40Z
2023-02-23T06:29:15Z,42.805,6.029,13.3041,4.60127,2470.497,2023-2-23T08:31:43Z
2023-02-23T06:32:18Z,42.805,6.029,13.3039,4.60135,2470.483,2023-2-23T08:34:47Z
2023-02-23T06:35:21Z,42.805,6.029,13.3031,4.60134,2470.507,2023-2-23T08:37:50Z
2023-02-23T06:38:24Z,42.805,6.029,13.3045,4.60113,2470.53,2023-2-23T08:40:53Z
2023-02-23T06:41:27Z,42.805,6.029,13.3043,4.60150,2470.53,2023-2-23T08:43:56Z
2023-02-23T06:44:31Z,42.805,6.029,13.3034,4.60126,2470.52,2023-2-23T08:46:59Z
2023-02-23T06:47:34Z,42.805,6.029,13.3032,4.60157,2470.53,2023-2-23T08:50:02Z
2023-02-23T06:50:37Z,42.805,6.029,13.3039,4.60127,2470.577,2023-2-23T08:53:05Z
2023-02-23T06:53:40Z,42.805,6.029,13.3033,4.60131,2470.53,2023-2-23T08:56:08Z
2023-02-23T06:56:43Z,42.805,6.029,13.3034,4.60120,2470.553,2023-2-23T08:59:11Z
2023-02-23T06:59:46Z,42.805,6.029,13.3035,4.60122,2470.553,2023-2-23T09:02:14Z
2023-02-23T07:02:49Z,42.805,6.029,13.3032,4.60133,2470.577,2023-2-23T09:05:17Z
2023-02-23T07:05:52Z,42.805,6.029,13.3047,4.60117,2470.591,2023-2-23T09:08:20Z
2023-02-23T07:08:55Z,42.805,6.029,13.3036,4.60148,2470.577,2023-2-23T09:11:24Z
2023-02-23T07:11:58Z,42.805,6.029,13.3038,4.60141,2470.553,2023-2-23T09:14:27Z
2023-02-23T07:15:01Z,42.805,6.029,13.3031,4.60121,2470.567,2023-2-23T09:17:30Z
2023-02-23T07:18:04Z,42.805,6.029,13.3032,4.60105,2470.553,2023-2-23T09:20:33Z
2023-02-23T07:21:07Z,42.805,6.029,13.3034,4.60120,2470.591,2023-2-23T09:23:36Z
2023-02-23T07:24:11Z,42.805,6.029,13.3044,4.60104,2470.614,2023-2-23T09:26:39Z
2023-02-23T07:27:14Z,42.805,6.029,13.3046,4.60113,2470.553,2023-2-23T09:29:42Z
2023-02-23T07:30:17Z,42.805,6.029,13.3036,4.60111,2470.614,2023-2-23T09:32:45Z
2023-02-23T07:33:20Z,42.805,6.029,13.3031,4.60126,2470.577,2023-2-23T09:35:48Z
2023-02-23T07:36:23Z,42.805,6.029,13.3044,4.60132,2470.577,2023-2-23T09:38:51Z
2023-02-23T07:39:26Z,42.805,6.029,13.3033,4.60119,2470.577,2023-2-23T09:41:54Z
2023-02-23T07:42:29Z,42.805,6.029,13.3027,4.60112,2470.624,2023-2-23T09:44:57Z
2023-02-23T07:45:32Z,42.805,6.029,13.3031,4.60124,2470.624,2023-2-23T09:48:00Z
2023-02-23T07:48:35Z,42.805,6.029,13.3028,4.60121,2470.614,2023-2-23T09:51:03Z
2023-02-23T07:51:38Z,42.805,6.029,13.3031,4.60114,2470.614,2023-2-23T09:54:07Z
2023-02-23T07:54:41Z,42.805,6.029,13.3036,4.60122,2470.6,2023-2-23T09:57:10Z
2023-02-23T07:57:44Z,42.805,6.029,13.3028,4.60111,2470.637,2023-2-23T10:00:13Z
2023-02-23T08:00:47Z,42.805,6.029,13.3034,4.60124,2470.637,2023-2-23T10:03:16Z
2023-02-23T08:03:51Z,42.805,6.029,13.3040,4.60130,2470.624,2023-2-23T10:06:19Z
2023-02-23T08:06:54Z,42.805,6.029,13.3041,4.60132,2470.637,2023-2-23T10:09:22Z
2023-02-23T08:09:57Z,42.805,6.029,13.3031,4.60110,2470.661,2023-2-23T10:12:25Z
2023-02-23T08:13:00Z,42.805,6.029,13.3036,4.60142,2470.646,2023-2-23T10:15:28Z
2023-02-23T08:16:03Z,42.805,6.029,13.3038,4.60123,2470.614,2023-2-23T10:18:31Z
2023-02-23T08:19:06Z,42.805,6.029,13.3036,4.60135,2470.646,2023-2-23T10:21:34Z
2023-02-23T08:22:09Z,42.805,6.029,13.3039,4.60127,2470.637,2023-2-23T10:24:37Z
2023-02-23T08:25:12Z,42.805,6.029,13.3044,4.60132,2470.624,2023-2-23T10:27:41Z
2023-02-23T08:28:15Z,42.805,6.029,13.3039,4.60111,2470.624,2023-2-23T10:30:44Z
2023-02-23T08:31:18Z,42.805,6.029,13.3046,4.60094,2470.67,2023-2-23T10:33:47Z
2023-02-23T08:34:21Z,42.805,6.029,13.3038,4.60111,2470.661,2023-2-23T10:36:50Z
2023-02-23T08:37:24Z,42.805,6.029,13.3053,4.60114,2470.67,2023-2-23T10:39:53Z
2023-02-23T08:40:28Z,42.805,6.029,13.3054,4.60140,2470.684,2023-2-23T10:42:56Z
2023-02-23T08:43:31Z,42.805,6.029,13.3049,4.60137,2470.646,2023-2-23T10:45:59Z
2023-02-23T08:46:34Z,42.805,6.029,13.3034,4.60092,2470.646,2023-2-23T10:49:02Z
2023-02-23T08:49:37Z,42.805,6.029,13.3051,4.60105,2470.67,2023-2-23T10:52:05Z
2023-02-23T08:52:40Z,42.805,6.029,13.3050,4.60102,2470.637,2023-2-23T10:55:08Z
2023-02-23T08:55:43Z,42.805,6.029,13.3043,4.60099,2470.684,2023-2-23T10:58:11Z
2023-02-23T08:58:46Z,42.805,6.029,13.3043,4.60101,2470.67,2023-2-23T11:01:14Z
2023-02-23T09:01:49Z,42.805,6.029,13.3043,4.60114,2470.646,2023-2-23T11:04:18Z
2023-02-23T09:04:52Z,42.805,6.029,13.3048,4.60127,2470.707,2023-2-23T11:07:21Z
2023-02-23T09:07:55Z,42.805,6.029,13.3035,4.60099,2470.707,2023-2-23T11:10:24Z
2023-02-23T09:10:58Z,42.805,6.029,13.3023,4.60072,2470.684,2023-2-23T11:13:27Z
2023-02-23T09:14:02Z,42.805,6.029,13.3018,4.60081,2470.67,2023-2-23T11:16:30Z
2023-02-23T09:17:05Z,42.805,6.029,13.3021,4.60069,2470.67,2023-2-23T11:19:33Z
2023-02-23T09:20:08Z,42.805,6.029,13.3028,4.60084,2470.661,2023-2-23T11:22:36Z
2023-02-23T09:23:11Z,42.805,6.029,13.3019,4.60070,2470.67,2023-2-23T11:25:39Z
2023-02-23T09:26:14Z,42.805,6.029,13.3038,4.60084,2470.656,2023-2-23T11:28:42Z
2023-02-23T09:29:17Z,42.805,6.029,13.3021,4.60071,2470.684,2023-2-23T11:31:45Z
2023-02-23T09:32:20Z,42.805,6.029,13.3023,4.60075,2470.693,2023-2-23T11:34:48Z
2023-02-23T09:35:23Z,42.805,6.029,13.3024,4.60089,2470.67,2023-2-23T11:37:51Z
2023-02-23T09:38:26Z,42.805,6.029,13.3033,4.60073,2470.693,2023-2-23T11:40:55Z
2023-02-23T09:41:29Z,42.805,6.029,13.3018,4.60071,2470.661,2023-2-23T11:43:58Z
2023-02-23T09:44:32Z,42.805,6.029,13.3022,4.60069,2470.693,2023-2-23T11:47:01Z
2023-02-23T09:47:35Z,42.805,6.029,13.3029,4.60081,2470.67,2023-2-23T11:50:04Z
2023-02-23T09:50:38Z,42.805,6.029,13.3024,4.60072,2470.684,2023-2-23T11:53:07Z
2023-02-23T09:53:42Z,42.805,6.029,13.3018,4.60072,2470.67,2023-2-23T11:56:10Z
2023-02-23T09:56:45Z,42.805,6.029,13.3039,4.60081,2470.693,2023-2-23T11:59:13Z
2023-02-23T09:59:48Z,42.805,6.029,13.3028,4.60076,2470.693,2023-2-23T12:02:16Z
2023-02-23T10:02:51Z,42.805,6.029,13.3021,4.60069,2470.67,2023-2-23T12:05:19Z
2023-02-23T10:05:54Z,42.805,6.029,13.3044,4.60097,2470.661,2023-2-23T12:08:22Z
2023-02-23T10:08:57Z,42.805,6.029,13.3044,4.60094,2470.684,2023-2-23T12:11:25Z
2023-02-23T10:12:00Z,42.805,6.029,13.3021,4.60070,2470.684,2023-2-23T12:14:28Z
2023-02-23T10:15:03Z,42.805,6.029,13.3021,4.60072,2470.67,2023-2-23T12:17:32Z
2023-02-23T10:18:06Z,42.805,6.029,13.3029,4.60087,2470.67,2023-2-23T12:20:35Z
2023-02-23T10:21:09Z,42.805,6.029,13.3039,4.60090,2470.67,2023-2-23T12:23:38Z
2023-02-23T10:24:12Z,42.805,6.029,13.3021,4.60072,2470.67,2023-2-23T12:26:41Z
2023-02-23T10:27:16Z,42.805,6.029,13.3020,4.60072,2470.67,2023-2-23T12:29:44Z
2023-02-23T10:30:19Z,42.805,6.029,13.3024,4.60072,2470.646,2023-2-23T12:32:47Z
2023-02-23T10:33:22Z,42.805,6.029,13.3019,4.60074,2470.646,2023-2-23T12:35:50Z
2023-02-23T10:36:25Z,42.805,6.029,13.3020,4.60072,2470.67,2023-2-23T12:38:53Z
2023-02-23T10:39:28Z,42.805,6.029,13.3022,4.60072,2470.67,2023-2-23T12:41:56Z
2023-02-23T10:42:31Z,42.805,6.029,13.3020,4.60073,2470.646,2023-2-23T12:44:59Z
2023-02-23T10:45:34Z,42.805,6.029,13.3028,4.60085,2470.684,2023-2-23T12:48:02Z
2023-02-23T10:48:37Z,42.805,6.029,13.3021,4.60073,2470.646,2023-2-23T12:51:06Z
2023-02-23T10:51:40Z,42.805,6.029,13.3030,4.60075,2470.646,2023-2-23T12:54:09Z
2023-02-23T10:54:43Z,42.805,6.029,13.3018,4.60074,2470.646,2023-2-23T12:57:12Z
2023-02-23T10:57:46Z,42.805,6.029,13.3019,4.60077,2470.646,2023-2-23T13:00:15Z
2023-02-23T11:00:49Z,42.805,6.029,13.3016,4.60073,2470.646,2023-2-23T13:03:18Z
2023-02-23T11:03:53Z,42.805,6.029,13.3021,4.60073,2470.661,2023-2-23T13:06:21Z
2023-02-23T11:06:56Z,42.805,6.029,13.3019,4.60075,2470.624,2023-2-23T13:09:24Z
2023-02-23T11:09:59Z,42.805,6.029,13.3019,4.60072,2470.624,2023-2-23T13:12:27Z
2023-02-23T11:13:02Z,42.805,6.029,13.3015,4.60072,2470.661,2023-2-23T13:15:30Z
2023-02-23T11:16:05Z,42.805,6.029,13.3014,4.60074,2470.637,2023-2-23T13:18:33Z
2023-02-23T11:19:08Z,42.805,6.029,13.3018,4.60077,2470.637,2023-2-23T13:21:36Z
2023-02-23T11:22:11Z,42.805,6.029,13.3021,4.60074,2470.637,2023-2-23T13:24:39Z
2023-02-23T11:25:14Z,42.805,6.029,13.3018,4.60073,2470.624,2023-2-23T13:27:43Z
2023-02-23T11:28:17Z,42.805,6.029,13.3015,4.60074,2470.6,2023-2-23T13:30:46Z
2023-02-23T11:31:20Z,42.805,6.029,13.3017,4.60075,2470.661,2023-2-23T13:33:49Z
2023-02-23T11:34:23Z,42.805,6.029,13.3019,4.60075,2470.614,2023-2-23T13:36:52Z
2023-02-23T11:37:26Z,42.805,6.029,13.3018,4.60076,2470.637,2023-2-23T13:39:55Z
2023-02-23T11:40:30Z,42.805,6.029,13.3018,4.60074,2470.637,2023-2-23T13:42:58Z
2023-02-23T11:43:33Z,42.805,6.029,13.3016,4.60075,2470.624,2023-2-23T13:46:01Z
2023-02-23T11:46:36Z,42.805,6.029,13.3017,4.60073,2470.624,2023-2-23T13:49:04Z
2023-02-23T11:49:39Z,42.805,6.029,13.3018,4.60072,2470.624,2023-2-23T13:52:07Z
2023-02-23T11:52:42Z,42.805,6.029,13.3018,4.60068,2470.577,2023-2-23T13:55:10Z
2023-02-23T11:55:45Z,42.805,6.029,13.3015,4.60068,2470.637,2023-2-23T13:58:13Z
2023-02-23T11:58:48Z,42.805,6.029,13.3019,4.60068,2470.6,2023-2-23T14:01:16Z
2023-02-23T12:01:51Z,42.805,6.029,13.3014,4.60069,2470.6,2023-2-23T14:04:20Z
2023-02-23T12:04:54Z,42.805,6.029,13.3016,4.60067,2470.553,2023-2-23T14:07:23Z
2023-02-23T12:07:57Z,42.805,6.029,13.3015,4.60068,2470.577,2023-2-23T14:10:26Z
2023-02-23T12:11:00Z,42.805,6.029,13.3019,4.60068,2470.591,2023-2-23T14:13:29Z
2023-02-23T12:14:03Z,42.805,6.029,13.3015,4.60068,2470.577,2023-2-23T14:16:32Z
2023-02-23T12:17:06Z,42.805,6.029,13.3016,4.60068,2470.6,2023-2-23T14:19:35Z
2023-02-23T12:20:10Z,42.805,6.029,13.3017,4.60069,2470.614,2023-2-23T14:22:38Z
2023-02-23T12:23:13Z,42.805,6.029,13.3013,4.60066,2470.614,2023-2-23T14:25:41Z
2023-02-23T12:26:16Z,42.805,6.029,13.3015,4.60067,2470.591,2023-2-23T14:28:44Z
2023-02-23T12:29:19Z,42.805,6.029,13.3017,4.60070,2470.553,2023-2-23T14:31:47Z
2023-02-23T12:32:22Z,42.805,6.029,13.3016,4.60067,2470.567,2023-2-23T14:34:50Z
2023-02-23T12:35:25Z,42.805,6.029,13.3015,4.60067,2470.577,2023-2-23T14:37:53Z
2023-02-23T12:38:28Z,42.805,6.029,13.3016,4.60067,2470.553,2023-2-23T14:40:57Z
2023-02-23T12:41:31Z,42.805,6.029,13.3019,4.60067,2470.567,2023-2-23T14:44:00Z
2023-02-23T12:44:34Z,42.805,6.029,13.3019,4.60067,2470.591,2023-2-23T14:47:03Z
2023-02-23T12:47:37Z,42.805,6.029,13.3016,4.60069,2470.553,2023-2-23T14:50:06Z
2023-02-23T12:50:40Z,42.805,6.029,13.3016,4.60069,2470.553,2023-2-23T14:53:09Z
2023-02-23T12:53:44Z,42.805,6.029,13.3019,4.60071,2470.553,2023-2-23T14:56:12Z
2023-02-23T12:56:47Z,42.805,6.029,13.3015,4.60073,2470.553,2023-2-23T14:59:15Z
2023-02-23T12:59:50Z,42.805,6.029,13.3018,4.60072,2470.53,2023-2-23T15:02:18Z
2023-02-23T13:02:53Z,42.805,6.029,13.3015,4.60070,2470.567,2023-2-23T15:05:21Z
2023-02-23T13:05:56Z,42.805,6.029,13.3015,4.60070,2470.53,2023-2-23T15:08:24Z
2023-02-23T13:08:59Z,42.805,6.029,13.3015,4.60072,2470.553,2023-2-23T15:11:27Z
2023-02-23T13:12:02Z,42.805,6.029,13.3018,4.60072,2470.553,2023-2-23T15:14:30Z
2023-02-23T13:15:05Z,42.805,6.029,13.3014,4.60072,2470.516,2023-2-23T15:17:34Z
2023-02-23T13:18:08Z,42.805,6.029,13.3017,4.60071,2470.544,2023-2-23T15:20:37Z
2023-02-23T13:21:11Z,42.805,6.029,13.3016,4.60072,2470.553,2023-2-23T15:23:40Z
2023-02-23T13:24:14Z,42.805,6.029,13.3012,4.60072,2470.53,2023-2-23T15:26:43Z
2023-02-23T13:27:17Z,42.805,6.029,13.3014,4.60071,2470.53,2023-2-23T15:29:46Z
2023-02-23T13:30:20Z,42.805,6.029,13.3015,4.60072,2470.544,2023-2-23T15:32:49Z
2023-02-23T13:33:24Z,42.805,6.029,13.3016,4.60072,2470.507,2023-2-23T15:35:52Z
2023-02-23T13:36:27Z,42.805,6.029,13.3011,4.60072,2470.483,2023-2-23T15:38:55Z
2023-02-23T13:39:30Z,42.805,6.029,13.3018,4.60070,2470.544,2023-2-23T15:41:58Z
2023-02-23T13:42:33Z,42.805,6.029,13.3015,4.60072,2470.52,2023-2-23T15:45:01Z
2023-02-23T13:45:36Z,42.805,6.029,13.3015,4.60072,2470.53,2023-2-23T15:48:04Z
2023-02-23T13:48:39Z,42.805,6.029,13.3016,4.60072,2470.507,2023-2-23T15:51:07Z
2023-02-23T13:51:42Z,42.805,6.029,13.3018,4.60072,2470.507,2023-2-23T15:54:11Z
2023-02-23T13:54:45Z,42.805,6.029,13.3015,4.60071,2470.52,2023-2-23T15:57:14Z
2023-02-23T13:57:48Z,42.805,6.029,13.3017,4.60072,2470.507,2023-2-23T16:00:17Z
2023-02-23T14:00:51Z,42.805,6.029,13.3010,4.60072,2470.507,2023-2-23T16:03:20Z
2023-02-23T14:03:54Z,42.805,6.029,13.3014,4.60071,2470.507,2023-2-23T16:06:23Z
2023-02-23T14:06:57Z,42.805,6.029,13.3014,4.60074,2470.497,2023-2-23T16:09:26Z
2023-02-23T14:10:01Z,42.805,6.029,13.3015,4.60072,2470.46,2023-2-23T16:12:29Z
2023-02-23T14:13:04Z,42.805,6.029,13.3015,4.60072,2470.46,2023-2-23T16:15:32Z
2023-02-23T14:16:07Z,42.805,6.029,13.3019,4.60072,2470.507,2023-2-23T16:18:35Z
2023-02-23T14:19:10Z,42.805,6.029,13.3014,4.60072,2470.474,2023-2-23T16:21:38Z
2023-02-23T14:22:13Z,42.805,6.029,13.3018,4.60072,2470.483,2023-2-23T16:24:41Z
2023-02-23T14:25:16Z,42.805,6.029,13.3017,4.60074,2470.46,2023-2-23T16:27:45Z
2023-02-23T14:28:19Z,42.805,6.029,13.3019,4.60072,2470.483,2023-2-23T16:30:48Z
2023-02-23T14:31:22Z,42.805,6.029,13.3015,4.60072,2470.483,2023-2-23T16:33:51Z
2023-02-23T14:34:25Z,42.805,6.029,13.3017,4.60075,2470.497,2023-2-23T16:36:54Z
2023-02-23T14:37:28Z,42.805,6.029,13.3013,4.60073,2470.474,2023-2-23T16:39:57Z
2023-02-23T14:40:31Z,42.805,6.029,13.3014,4.60072,2470.474,2023-2-23T16:43:00Z
2023-02-23T14:43:35Z,42.805,6.029,13.3016,4.60076,2470.45,2023-2-23T16:46:03Z
2023-02-23T14:46:38Z,42.805,6.029,13.3014,4.60074,2470.483,2023-2-23T16:49:06Z
2023-02-23T14:49:41Z,42.805,6.029,13.3018,4.60072,2470.474,2023-2-23T16:52:09Z
2023-02-23T14:52:44Z,42.805,6.029,13.3018,4.60072,2470.46,2023-2-23T16:55:12Z
2023-02-23T14:55:47Z,42.805,6.029,13.3015,4.60073,2470.483,2023-2-23T16:58:15Z
2023-02-23T14:58:50Z,42.805,6.029,13.3015,4.60072,2470.45,2023-2-23T17:01:18Z
2023-02-23T15:01:53Z,42.805,6.029,13.3019,4.60072,2470.437,2023-2-23T17:04:22Z
2023-02-23T15:04:56Z,42.805,6.029,13.3018,4.60073,2470.474,2023-2-23T17:07:25Z
2023-02-23T15:07:59Z,42.805,6.029,13.3025,4.60080,2470.437,2023-2-23T17:10:28Z
2023-02-23T15:11:02Z,42.805,6.029,13.3021,4.60073,2470.46,2023-2-23T17:13:31Z
2023-02-23T15:14:05Z,42.805,6.029,13.3028,4.60080,2470.483,2023-2-23T17:16:34Z